This is the latest recevied weather packets stored in our database for station/object IZ1UQG-1. If no packets are shown the sender has not sent any weather packets the latest 10 day(s).
| Time | Temp. | Humidity | Pressure | Rain* | Wind** | Luminosity | Snow |
|---|---|---|---|---|---|---|---|
| 1777603444 | 15° C | 49% | 1025.9 hPa | 138.94 mm | - | - | - |
| 1777603144 | 15° C | 49% | 1026 hPa | 101.85 mm | - | - | - |
| 1777602845 | 15° C | 48% | 1026 hPa | 176.28 mm | - | - | - |
| 1777602545 | 15° C | 49% | 1025.8 hPa | 150.37 mm | - | - | - |
| 1777602244 | 15° C | 49% | 1025.9 hPa | 146.3 mm | - | - | - |
| 1777601945 | 15° C | 49% | 1025.9 hPa | 135.38 mm | - | - | - |
| 1777601645 | 15° C | 49% | 1025.8 hPa | 194.56 mm | - | - | - |
| 1777601345 | 15° C | 49% | 1025.9 hPa | 178.31 mm | - | - | - |
| 1777600745 | 15° C | 51% | 1025.7 hPa | 97.03 mm | - | - | - |
| 1777600445 | 15° C | 52% | 1025.7 hPa | 160.27 mm | - | - | - |
| 1777600145 | 15° C | 53% | 1025.6 hPa | 177.8 mm | - | - | - |
| 1777599845 | 15° C | 55% | 1025.6 hPa | 182.63 mm | - | - | - |
| 1777599545 | 15° C | 56% | 1025.5 hPa | 137.92 mm | - | - | - |
| 1777599245 | 15.56° C | 57% | 1025.5 hPa | 155.7 mm | - | - | - |
| 1777598945 | 15° C | 57% | 1025.5 hPa | 183.64 mm | - | - | - |
| 1777598645 | 15.56° C | 58% | 1025.2 hPa | 162.31 mm | - | - | - |
| 1777598345 | 15.56° C | 59% | 1025.5 hPa | 160.78 mm | - | - | - |
| 1777598045 | 15.56° C | 60% | 1025.2 hPa | 146.81 mm | - | - | - |
| 1777597745 | 15.56° C | 61% | 1025.3 hPa | 136.91 mm | - | - | - |
| 1777597445 | 15.56° C | 61% | 1025.3 hPa | 159.77 mm | - | - | - |
| 1777597145 | 15.56° C | 61% | 1025.2 hPa | 125.48 mm | - | - | - |
| 1777596845 | 15.56° C | 62% | 1025.1 hPa | 140.46 mm | - | - | - |
| 1777596545 | 15.56° C | 61% | 1025.1 hPa | 139.95 mm | - | - | - |
| 1777596245 | 15.56° C | 61% | 1024.9 hPa | 136.91 mm | - | - | - |
| 1777595945 | 15.56° C | 61% | 1025.1 hPa | 153.42 mm | - | - | - |
* Rain latest hour (hover to see other rain measurements)
** Current wind speed in m/s (hover to see current wind gust speed)